Location: Huberhof
(49.2050°N, 7.4980°E)
Time: 05:19:46
(UTC+00:00)

Cosmos 1844 Rocket - Pass Details

Date: 29 October 2020
Orbit: 823 x 846 km, 71.0° (Epoch: 25 November)

Event Time Altitude Azimuth Distance (km) Brightness Sun altitude
Rises 18:25:10 0° 335° (NNW) 3,412 6.3 -22.0°
Reaches altitude 10° 18:28:22 10° 352° (N) 2,477 5.3 -22.6°
Enters shadow 18:31:40 19° 28° (NNE) 1,923 4.3 -23.1°
